Showing default

NAVSPASUR ROD 1, 1515

Orbit data source: Space-Track

NAVSPASUR ROD 1, 1515 is a payload satellite owned by NRL (US) in LEO that was launched on Fri, 13 Aug 1965 UTC via a THOR ABLESTAR launch vehicle from the Air Force Western Test Range (AFWTR). Payload-class satellites include a variety of spacecraft equipped with specific instruments for various scientific and technological missions. These include communications satellites like Starlink; space stations such as the ISS; scientific satellites like the Hubble; Earth observation satellites from companies like Planet Labs, Umbra, and HawkEye 360; GPS; miniature CubeSats for education and research; and military/defense satellites.

Loading next visibility...
Identifier
1515, 1965-065G
Orbit
LEO
Last TLE update
11 hours ago
Origin
Manufacturer
NRL
Mission
Defense Calibration
Bus & Motor
LONG ROD, Unknown motor
Mass
3 kg wet, 3 kg dry
Launch date (UTC)
1965-08-13 (60 years ago)
Launch vehicle
THOR ABLESTAR
Launch site
Air Force Western Test Range (AFWTR)
Object type
Payload
Rocket body
Debris
Shape & HBR
Sphere, 0.2 m
Radar Cross Section
0.126 m², Small (<0.1 m²)

Expand to show TLE details & history

TLE from 11 hours ago
0 NAVSPASUR ROD 1
1 01515U 65065G   25199.51347653  .00000395  00000-0  59521-3 0  9996
2 01515  89.9990 213.7830 0057515 198.7081 291.8686 13.50636580935272
Epoch: 2025-07-18T12:19Z
TLE epoch observation values (Epoch: 2025-07-18T12:19:24.372Z)
Latitude
50.13047°
Longitude
-87.6336°
Altitude
1,062.225 km
Speed
7.333 km/s
True Right ascension
02h 15m 07s
True Declination
49° 58' 05"
Sunlit
Object was in daylight at epoch
Visualization orbit readout
Latitude
50.51514°
Longitude
-87.63366°
Altitude
1,061.691 km
Speed
7.334 km/s
Apparent Right ascension
00h 59m 44s
Apparent Declination
10° 13' 22"
Sunlit
Object is in daylight
Visualization observer readout
Local Sidereal Time
11:46:54
Azimuth
337.322° NNW
Elevation
-37.094°
Doppler factor
1
Orbital elements
Apogee altitude
1,109.787 km
Perigee altitude
1,024.146 km
Semi-major axis
7,445.103 km
Eccentricity
0.00575
Inclination
89.999°
RAAN
213.783°
Arg. of periapsis
198.7081°
True anomaly
291.25532°
Mean anomaly
291.8686°
Eccentric anomaly
291.56212°
Mean motion
3.3786 °/min
Orbital period
106.55 mins
BSTAR
0.00059521
Loading maneuver chart data...
Loading SW <> Apogee altitude chart data...
Loading historical data...
Loading historical data...
Loading historical data...
Loading historical data...
Loading historical data...
Loading historical data...
Loading historical data...
|